Regional Weather Roundup
Issued by NWS

Home | Current Version | Previous Version | Text Only | Print | Product List | Glossary Off
Versions: 1 2 3 4 5 6 7 8 9 10 11 12 13 14 15 16 17 18 19 20 21 22 23 24 25 26 27 28 29 30 31 32 33 34 35 36 37 38 39 40 41 42 43 44 45 46 47 48 49 50

000
ASUS43 KMKX 170110
RWRWI

WISCONSIN REGIONAL WEATHER ROUNDUP
NATIONAL WEATHER SERVICE MILWAUKEE/SULLIVAN WI
700 PM CST SAT DEC 16 2017

NOTE: "FAIR" INDICATES FEW OR NO CLOUDS BELOW 12,000 FEET WITH NO
SIGNIFICANT WEATHER AND/OR OBSTRUCTIONS TO VISIBILITY.

WIZ001-002-006>008-014>016-023>028-170200-
NORTHWEST WISCONSIN

CITY           SKY/WX    TMP DP  RH WIND       PRES   REMARKS
SUPERIOR ARPT  CLOUDY    22  12  66 CALM      30.10R
ASHLAND        CLOUDY    21  13  71 E3        30.10R
HAYWARD        CLOUDY    20  12  71 CALM      30.07R
SIREN          CLOUDY    23  16  75 CALM      30.07R
CUMBERLAND     CLOUDY    19  14  79 CALM      30.04R
RICE LAKE      CLOUDY    22  15  76 CALM      30.06R
CHETEK         CLOUDY    21  16  79 SE5       30.05R WCI  15
LADYSMITH      CLOUDY    23  17  77 E6        30.07R WCI  15
EAU CLAIRE     CLOUDY    22  17  81 E6        30.05R WCI  14
MENOMONIE      PTCLDY    19  16  86 E6        30.06R WCI  11
NEW RICHMOND   PTCLDY    21  15  78 CALM      30.06R
OSCEOLA        MOCLDY    24  18  77 NE3       30.10R
$$

WIZ003>005-009-010-017-018-170200-
NORTH CENTRAL WISCONSIN

CITY           SKY/WX    TMP DP  RH WIND       PRES   REMARKS
MANITOWISH WTR CLOUDY    18  10  72 SE5       30.05R WCI  11
ARBOR VITAE    CLOUDY    19  12  74 SE7       30.05R WCI  10
WOODRUFF       CLOUDY    19  12  74 SE7       30.05R WCI  10
RHINELANDER    CLOUDY    19  14  81 SE7       30.07R WCI  10
EAGLE RIVER    CLOUDY    19  10  69 SE3       30.06R
LAND O LAKES   CLOUDY    18  11  74 SE5       30.08R WCI  11
PHILLIPS       CLOUDY    18  12  77 SE7       30.04S WCI   9
TOMAHAWK       CLOUDY    18  13  81 CALM      30.08R
MEDFORD        CLOUDY    20  15  81 E6        30.05R WCI  13
MERRILL        CLOUDY    21  17  82 E3        30.08R
$$

WIZ029-030-035-036-043>047-170200-
CENTRAL WISCONSIN

CITY           SKY/WX    TMP DP  RH WIND       PRES   REMARKS
WAUSAU         CLOUDY    21  17  84 E8        30.07R WCI  11
MOSINEE        CLOUDY    21  18  86 E7        30.08R WCI  13
MARSHFIELD     CLOUDY    22  18  85 E9        30.05R WCI  12
STEVENS POINT  CLOUDY    21  17  85 E8        30.09S WCI  11
WAUPACA        CLOUDY    26  20  77 NE5       30.11R WCI  21
WAUTOMA        CLOUDY    25  20  81 NE9       30.09R WCI  15
WISC RAPIDS    CLOUDY    24  16  71 E10       30.09R WCI  14
CAMP DOUGLAS   CLOUDY    26  23  90 E6        30.07R WCI  19
$$

WIZ011>013-019>022-031-037>040-048>050-170200-
NORTHEAST WISCONSIN

CITY           SKY/WX    TMP DP  RH WIND       PRES   REMARKS
ANTIGO         CLOUDY    19  17  92 E8        30.08R WCI   8
SHAWANO        CLOUDY    24  19  82 NE5       30.12S WCI  18
OCONTO         CLOUDY    23  19  85 N5        30.14R WCI  17
STURGEON BAY   CLOUDY    27  22  81 E5        30.14R WCI  22
GREEN BAY      CLOUDY    26  20  77 N7        30.12R WCI  18
MANITOWOC      CLOUDY    28  22  78 NE3       30.11R
APPLETON       CLOUDY    25  18  74 NE7       30.08R WCI  17
CLINTONVILLE   CLOUDY    23  18  80 NE6       30.11S WCI  16
OSHKOSH        CLOUDY    27  22  81 NE9       30.09R WCI  18
$$

WIZ032>034-041-042-053>061-170200-
SOUTHWEST WISCONSIN

CITY           SKY/WX    TMP DP  RH WIND       PRES   REMARKS
LA CROSSE      MOCLDY    28  23  81 E6        30.06R WCI  22
SPARTA         CLOUDY    26  25  95 NE7       30.07R WCI  18
VIROQUA        CLOUDY    27  27 100 CALM      30.00S
BOSCOBEL       CLOUDY    31  25  78 CALM      30.04R
PRAIRIE DU CHI PTCLDY    33  24  71 E3        30.01R
PLATTEVILLE    CLEAR     32  29  87 NE10      30.01R WCI  24
$$

WIZ056-057-062-063-064-067-068-170200-
SOUTH CENTRAL WISCONSIN

CITY           SKY/WX    TMP DP  RH WIND       PRES   REMARKS
REEDSBURG      CLOUDY    27  26  98 NE9       30.06R WCI  18
BARABOO/DELLS  CLOUDY    27  24  89 NE7       30.06R WCI  19
LONE ROCK      CLOUDY    33  29  85 NE12      30.05R FOG     WCI  24
MINERAL POINT  CLEAR     32  32 100 E9        30.00R WCI  24
MADISON        CLOUDY    32  29  88 E8        30.05R WCI  25
MIDDLETON      CLOUDY    33  31  92 E7        30.04R WCI  27
WATERTOWN      CLOUDY    31  31 100 NE8       30.05R WCI  24
MONROE         CLEAR     32  30  93 NE8       30.00R WCI  25
JANESVILLE     CLEAR     34  32  93 NE8       30.01R WCI  27
$$

WIZ051-052-058>065-066-070>072-170200-
SOUTHEAST WISCONSIN

CITY           SKY/WX    TMP DP  RH WIND       PRES   REMARKS
MILWAUKEE      PTCLDY    36  33  89 NE13      30.05R WCI  27
WAUKESHA       CLOUDY    30  28  93 NE8       30.05R WCI  23
MILWAUKEE/TIMM CLOUDY    34  28  80 NE7       30.06R WCI  28
RACINE         CLEAR     32  31  96 N6        30.05R WCI  26
BURLINGTON     CLEAR     46  46 100 CALM      30.03R FOG
KENOSHA        CLEAR     32  25  75 N5        30.03R WCI  27
FOND DU LAC    CLOUDY    29  22  75 NE10      30.09R WCI  20
SHEBOYGAN      CLOUDY    30  26  85 NE9       30.09R WCI  22
WEST BEND      CLOUDY    30  28  93 NE7       30.07R WCI  23
JUNEAU         CLOUDY    29  24  82 NE8       30.08R WCI  21
$$

LSZ147-162-170200-
LAKE SUPERIOR

STATION/POSITION TIME  TEMP    WIND        PRES    WAVE
                       AIR SEA DIR/SP/G            HT/PER
                 (UTC) (F)     (DEG/KT/KT) (MB)    (FT/S)
DEVILS ISLAND    0000   25     150/  7/  9 1020.2R
SAXON HARBOR     0040   22                 1019.0S
$$

LMZ867-665-643>646-170200-
LAKE MICHIGAN

STATION/POSITION TIME  TEMP    WIND        PRES    WAVE
                       AIR SEA DIR/SP/G            HT/PER
                 (UTC) (F)     (DEG/KT/KT) (MB)    (FT/S)
NORTHPORT PIER   0040   26      70/ 11/ 17 1021.0R
KEWAUNEE LAKESHO 0042   30      80/  8/ 12 1019.3R
SHEBOYGAN LAKESH 0100   32      50/ 12/ 13 1019.7R
PORT WASHINGTON  0040   35      70/  8/  9 1019.3R
MILWAUKEE LAKESH 0050   36      60/ 14/ 15   N/A
KENOSHA   LAKESH 0100   36      10/  6/  8 1017.3
$$

TC  - TEMPERATURE IN CELSIUS
VSB - VISIBILITY IN STATUTE MILES
WCI - WIND CHILL INDEX
HX  - HEAT INDEX




USA.gov is the U.S. government's official web portal to all federal, state and local government web resources and services.